This is the latest recevied weather packets stored in our database for station/object XE2OR-10. If no packets are shown the sender has not sent any weather packets the latest 10 day(s).
| Time | Temp. | Humidity | Pressure | Rain* | Wind** | Luminosity | Snow |
|---|---|---|---|---|---|---|---|
| 1777309729 | 28.33° C | 87% | 1000.9 hPa | 0 mm | - | 273 W/m² | - |
| 1777309430 | 28.33° C | 87% | 1000.9 hPa | 0 mm | - | 347 W/m² | - |
| 1777309129 | 28.33° C | 87% | 1001 hPa | 0 mm | - | 290 W/m² | - |
| 1777308832 | 28.33° C | 87% | 1001 hPa | 0 mm | - | 205 W/m² | - |
| 1777308529 | 28.33° C | 87% | 1001.1 hPa | 0 mm | - | 251 W/m² | - |
| 1777308232 | 28.33° C | 87% | 1001.1 hPa | 0 mm | - | 231 W/m² | - |
| 1777307929 | 28.33° C | 87% | 1001 hPa | 0 mm | - | 229 W/m² | - |
| 1777307629 | 28.89° C | 87% | 1000.9 hPa | 0 mm | - | 194 W/m² | - |
| 1777307329 | 28.33° C | 87% | 1001 hPa | 0 mm | - | 238 W/m² | - |
| 1777307033 | 28.33° C | 87% | 1001.1 hPa | 0 mm | - | 265 W/m² | - |
| 1777306729 | 28.33° C | 87% | 1000.9 hPa | 0 mm | - | 269 W/m² | - |
| 1777306433 | 27.78° C | 87% | 1001.1 hPa | 0 mm | - | 245 W/m² | - |
| 1777306129 | 27.78° C | 88% | 1000.9 hPa | 0 mm | - | 316 W/m² | - |
| 1777305830 | 27.22° C | 88% | 1000.7 hPa | 0 mm | - | 297 W/m² | - |
| 1777305529 | 27.22° C | 88% | 1000.8 hPa | 0 mm | - | 176 W/m² | - |
| 1777305232 | 27.22° C | 88% | 1000.8 hPa | 0 mm | - | 153 W/m² | - |
| 1777304929 | 27.22° C | 88% | 1000.7 hPa | 0 mm | - | 193 W/m² | - |
| 1777304633 | 27.22° C | 88% | 1000.8 hPa | 0 mm | - | 158 W/m² | - |
| 1777304330 | 27.22° C | 88% | 1000.6 hPa | 0 mm | - | 155 W/m² | - |
| 1777304029 | 26.67° C | 89% | 1000.7 hPa | 0 mm | - | 130 W/m² | - |
| 1777303729 | 26.67° C | 89% | 1000.5 hPa | 0 mm | - | 140 W/m² | - |
| 1777303433 | 27.22° C | 88% | 1000.3 hPa | 0 mm | - | 239 W/m² | - |
| 1777303129 | 26.67° C | 89% | 1000.5 hPa | 0 mm | - | 303 W/m² | - |
| 1777302833 | 26.67° C | 89% | 1000.2 hPa | 0 mm | - | 185 W/m² | - |
| 1777302529 | 26.67° C | 89% | 1000.3 hPa | 0 mm | - | 341 W/m² | - |
* Rain latest hour (hover to see other rain measurements)
** Current wind speed in m/s (hover to see current wind gust speed)